| time (UTC) | temp F | wind direction | speed knots | gust knots | rain 1hr in | rain 24hr in | rain mn in | humidity % | barometer mb |
| 20260906220603 | 90 | 338 | 6.1 | 9.6 | 0.00 | 0.00 | 0.00 | 35 | 1014.7 |
| 20260906215603 | 90 | 338 | 5.2 | 8.7 | 0.00 | 0.00 | 0.00 | 35 | 1015.1 |
| 20260906214603 | 90 | 338 | 5.2 | 7.8 | 0.00 | 0.00 | 0.00 | 34 | 1015.1 |
| 20260906213603 | 89 | 338 | 3.5 | 7.0 | 0.00 | 0.00 | 0.00 | 35 | 1015.3 |
| 20260906212603 | 89 | 338 | 5.2 | 8.7 | 0.00 | 0.00 | 0.00 | 35 | 1015.6 |
| 20260906211603 | 89 | 338 | 7.0 | 11.3 | 0.00 | 0.00 | 0.00 | 34 | 1015.7 |
| 20260906210603 | 89 | 338 | 6.1 | 11.3 | 0.00 | 0.00 | 0.00 | 34 | 1015.8 |
| 20260906205603 | 88 | 338 | 6.1 | 9.6 | 0.00 | 0.00 | 0.00 | 35 | 1015.8 |
| 20260906204623 | 87 | 338 | 5.2 | 7.8 | 0.00 | 0.00 | 0.00 | 36 | 1016.0 |
| 20260906203603 | 86 | 338 | 5.2 | 12.2 | 0.00 | 0.00 | 0.00 | 38 | 1015.9 |
| 20260906202603 | 87 | 0 | 7.0 | 9.6 | 0.00 | 0.00 | 0.00 | 37 | 1016.3 |
| 20260906201603 | 87 | 338 | 3.5 | 7.8 | 0.00 | 0.00 | 0.00 | 37 | 1016.7 |
| 20260906200603 | 87 | 338 | 6.1 | 10.4 | 0.00 | 0.00 | 0.00 | 37 | 1016.8 |
| 20260906195623 | 87 | 338 | 6.1 | 9.6 | 0.00 | 0.00 | 0.00 | 37 | 1016.9 |
| 20260906194623 | 86 | 293 | 2.6 | 9.6 | 0.00 | 0.00 | 0.00 | 40 | 1017.0 |
| 20260906193603 | 85 | 338 | 4.3 | 10.4 | 0.00 | 0.00 | 0.00 | 42 | 1016.7 |
| 20260906192603 | 85 | 338 | 4.3 | 6.1 | 0.00 | 0.00 | 0.00 | 42 | 1017.0 |
| 20260906191603 | 84 | 0 | 4.3 | 8.7 | 0.00 | 0.00 | 0.00 | 42 | 1017.0 |
| 20260906190603 | 84 | 0 | 4.3 | 8.7 | 0.00 | 0.00 | 0.00 | 44 | 1017.1 |
| 20260906185603 | 84 | 0 | 2.6 | 4.3 | 0.00 | 0.00 | 0.00 | 45 | 1017.4 |
| 20260906184603 | 83 | 338 | 3.5 | 7.0 | 0.00 | 0.00 | 0.00 | 46 | 1017.6 |
| 20260906183623 | 82 | 0 | 1.7 | 5.2 | 0.00 | 0.00 | 0.00 | 48 | 1017.5 |
| 20260906182603 | 81 | 0 | 4.3 | 7.8 | 0.00 | 0.00 | 0.00 | 51 | 1017.7 |
| 20260906181603 | 81 | 23 | 1.7 | 5.2 | 0.00 | 0.00 | 0.00 | 52 | 1018.0 |
| 20260906180603 | 80 | 338 | 3.5 | 6.1 | 0.00 | 0.00 | 0.00 | 55 | 1017.8 |
| 20260906175603 | 80 | 315 | 2.6 | 7.0 | 0.00 | 0.00 | 0.00 | 56 | 1018.2 |
| 20260906174603 | 80 | 0 | 3.5 | 7.0 | 0.00 | 0.00 | 0.00 | 54 | 1018.5 |
| 20260906173603 | 80 | 45 | 2.6 | 5.2 | 0.00 | 0.00 | 0.00 | 54 | 1018.7 |
| 20260906172603 | 80 | 0 | 1.7 | 4.3 | 0.00 | 0.00 | 0.00 | 57 | 1018.8 |
| 20260906171603 | 78 | 0 | 0.9 | 2.6 | 0.00 | 0.00 | 0.00 | 59 | 1018.6 |
| 20260906170603 | 77 | 45 | 1.7 | 3.5 | 0.00 | 0.00 | 0.00 | 59 | 1018.8 |
| 20260906165603 | 76 | 23 | 3.5 | 7.0 | 0.00 | 0.00 | 0.00 | 61 | 1018.6 |
| 20260906164603 | 75 | 270 | 1.7 | 4.3 | 0.00 | 0.00 | 0.00 | 63 | 1018.8 |
| 20260906163603 | 74 | 23 | 1.7 | 4.3 | 0.00 | 0.00 | 0.00 | 64 | 1018.7 |
| 20260906162623 | 73 | 338 | 1.7 | 3.5 | 0.00 | 0.00 | 0.00 | 66 | 1018.5 |
| 20260906161603 | 73 | 338 | 0.9 | 5.2 | 0.00 | 0.00 | 0.00 | 66 | 1018.7 |
| 20260906160603 | 73 | 0 | 1.7 | 4.3 | 0.00 | 0.00 | 0.00 | 66 | 1018.6 |
| 20260906155603 | 72 | 0 | 2.6 | 4.3 | 0.00 | 0.00 | 0.00 | 68 | 1018.4 |
| 20260906154603 | 71 | 0 | 1.7 | 4.3 | 0.00 | 0.00 | 0.00 | 69 | 1018.5 |
| 20260906153603 | 70 | 23 | 1.7 | 4.3 | 0.00 | 0.00 | 0.00 | 72 | 1018.7 |
| 20260906152603 | 69 | 0 | 2.6 | 6.1 | 0.00 | 0.00 | 0.00 | 74 | 1018.4 |
| 20260906151603 | 68 | 45 | 2.6 | 5.2 | 0.00 | 0.00 | 0.00 | 75 | 1018.3 |
| 20260906150603 | 67 | 0 | 1.7 | 5.2 | 0.00 | 0.00 | 0.00 | 77 | 1018.6 |
| 20260906145603 | 66 | 23 | 3.5 | 4.3 | 0.00 | 0.00 | 0.00 | 80 | 1018.1 |
| 20260906144603 | 66 | 338 | 2.6 | 4.3 | 0.00 | 0.00 | 0.00 | 80 | 1018.4 |
| 20260906143603 | 66 | 338 | 2.6 | 4.3 | 0.00 | 0.00 | 0.00 | 79 | 1018.4 |
| 20260906142603 | 66 | 0 | 2.6 | 4.3 | 0.00 | 0.00 | 0.00 | 79 | 1018.5 |
| 20260906141603 | 65 | 315 | 2.6 | 4.3 | 0.00 | 0.00 | 0.00 | 80 | 1018.8 |
| 20260906140623 | 65 | 338 | 3.5 | 6.1 | 0.00 | 0.00 | 0.00 | 79 | 1018.5 |
| 20260906135623 | 63 | 293 | 0.9 | 2.6 | 0.00 | 0.00 | 0.00 | 79 | 1018.3 |
| 20260906134603 | 63 | 0.0 | 1.7 | 0.00 | 0.00 | 0.00 | 79 | 1018.2 | |
| 20260906133603 | 62 | 225 | 0.9 | 2.6 | 0.00 | 0.00 | 0.00 | 79 | 1018.2 |
| 20260906132603 | 62 | 0.0 | 1.7 | 0.00 | 0.00 | 0.00 | 79 | 1018.1 | |
| 20260906131603 | 62 | 248 | 0.9 | 1.7 | 0.00 | 0.00 | 0.00 | 79 | 1018.5 |
| 20260906130603 | 62 | 225 | 0.9 | 1.7 | 0.00 | 0.00 | 0.00 | 78 | 1018.3 |
| 20260906125603 | 62 | 225 | 0.9 | 1.7 | 0.00 | 0.00 | 0.00 | 77 | 1018.3 |
| 20260906124643 | 62 | 0.0 | 0.0 | 0.00 | 0.00 | 0.00 | 77 | 1018.4 | |
| 20260906123603 | 61 | 0.0 | 1.7 | 0.00 | 0.00 | 0.00 | 78 | 1018.1 | |
| 20260906122603 | 61 | 225 | 0.9 | 1.7 | 0.00 | 0.00 | 0.00 | 80 | 1018.2 |
| 20260906121603 | 61 | 0.0 | 0.0 | 0.00 | 0.00 | 0.00 | 78 | 1018.3 | |
| 20260906120623 | 61 | 0.0 | 0.0 | 0.00 | 0.00 | 0.00 | 77 | 1018.2 | |
| 20260906115603 | 62 | 0.0 | 0.0 | 0.00 | 0.00 | 0.00 | 76 | 1018.2 | |
| 20260906114623 | 62 | 0.0 | 0.0 | 0.00 | 0.00 | 0.00 | 75 | 1018.9 | |
| 20260906113603 | 62 | 0.0 | 1.7 | 0.00 | 0.00 | 0.00 | 76 | 1019.0 | |
| 20260906112603 | 62 | 0.0 | 0.9 | 0.00 | 0.00 | 0.00 | 75 | 1019.0 | |
| 20260906111603 | 62 | 0.0 | 1.7 | 0.00 | 0.00 | 0.00 | 75 | 1019.3 | |
| 20260906110603 | 63 | 0.0 | 1.7 | 0.00 | 0.00 | 0.00 | 74 | 1019.3 | |
| 20260906105623 | 63 | 225 | 0.9 | 1.7 | 0.00 | 0.00 | 0.00 | 74 | 1019.4 |
| 20260906104603 | 63 | 225 | 0.9 | 1.7 | 0.00 | 0.00 | 0.00 | 74 | 1019.6 |
| 20260906103603 | 63 | 0.0 | 0.9 | 0.00 | 0.00 | 0.00 | 73 | 1019.7 | |
| 20260906102603 | 64 | 0.0 | 0.0 | 0.00 | 0.00 | 0.00 | 73 | 1019.7 | |
| 20260906101602 | 64 | 0.0 | 0.0 | 0.00 | 0.00 | 0.00 | 73 | 1019.7 | |
| 20260906100602 | 64 | 0.0 | 0.0 | 0.00 | 0.00 | 0.00 | 73 | 1019.4 | |
| 20260906095603 | 64 | 0.0 | 0.0 | 0.00 | 0.00 | 0.00 | 72 | 1019.4 | |
| 20260906094622 | 64 | 0.0 | 0.0 | 0.00 | 0.00 | 0.00 | 71 | 1019.3 | |
| 20260906093603 | 65 | 0.0 | 0.0 | 0.00 | 0.00 | 0.00 | 70 | 1019.6 | |
| 20260906092602 | 65 | 0.0 | 0.0 | 0.00 | 0.00 | 0.00 | 69 | 1019.4 | |
| 20260906091602 | 65 | 0.0 | 0.0 | 0.00 | 0.00 | 0.00 | 68 | 1019.1 | |
| 20260906090622 | 66 | 0.0 | 0.9 | 0.00 | 0.00 | 0.00 | 66 | 1018.8 | |
| 20260906085602 | 66 | 0 | 0.9 | 1.7 | 0.00 | 0.00 | 0.00 | 64 | 1018.6 |
| 20260906084603 | 66 | 315 | 0.9 | 2.6 | 0.00 | 0.00 | 0.00 | 62 | 1018.6 |
| 20260906083623 | 67 | 0 | 1.7 | 2.6 | 0.00 | 0.00 | 0.00 | 60 | 1018.6 |
| 20260906082602 | 67 | 23 | 1.7 | 2.6 | 0.00 | 0.00 | 0.00 | 58 | 1018.9 |
| 20260906081623 | 68 | 338 | 4.3 | 4.3 | 0.00 | 0.00 | 0.00 | 55 | 1018.9 |
| 20260906080602 | 68 | 23 | 2.6 | 4.3 | 0.00 | 0.00 | 0.00 | 54 | 1019.1 |
| 20260906075602 | 69 | 0 | 2.6 | 4.3 | 0.00 | 0.00 | 0.00 | 52 | 1019.2 |
| 20260906074602 | 69 | 315 | 2.6 | 3.5 | 0.00 | 0.00 | 0.00 | 51 | 1018.7 |
| 20260906073602 | 69 | 0.0 | 0.0 | 0.00 | 0.00 | 0.00 | 51 | 1018.7 | |
| 20260906072602 | 69 | 0.0 | 0.0 | 0.00 | 0.00 | 0.00 | 50 | 1018.7 | |
| 20260906071602 | 70 | 0.0 | 0.0 | 0.00 | 0.00 | 0.00 | 48 | 1019.0 | |
| 20260906070602 | 70 | 0.0 | 0.0 | 0.00 | 0.00 | 0.00 | 48 | 1019.2 | |
| 20260906065603 | 70 | 0.0 | 0.0 | 0.00 | 0.00 | 0.00 | 48 | 1019.1 | |
| 20260906064602 | 70 | 0.0 | 0.0 | 0.00 | 0.00 | 0.00 | 48 | 1018.9 | |
| 20260906063602 | 71 | 0.0 | 0.0 | 0.00 | 0.00 | 0.00 | 47 | 1018.9 | |
| 20260906062602 | 71 | 0.0 | 0.9 | 0.00 | 0.00 | 0.00 | 47 | 1018.8 | |
| 20260906061602 | 71 | 0.0 | 0.9 | 0.00 | 0.00 | 0.00 | 48 | 1018.7 | |
| 20260906060602 | 72 | 0 | 0.9 | 3.5 | 0.00 | 0.00 | 0.00 | 47 | 1018.4 |
| 20260906055602 | 72 | 135 | 1.7 | 2.6 | 0.00 | 0.00 | 0.00 | 44 | 1018.5 |
| 20260906054601 | 73 | 0.0 | 1.7 | 0.00 | 0.00 | 0.00 | 43 | 1018.9 | |
| 20260906053601 | 73 | 135 | 0.9 | 1.7 | 0.00 | 0.00 | 0.00 | 43 | 1019.1 |
| 20260906052601 | 73 | 0.0 | 0.9 | 0.00 | 0.00 | 0.00 | 42 | 1019.2 | |
| 20260906051602 | 73 | 113 | 1.7 | 2.6 | 0.00 | 0.00 | 0.00 | 43 | 1019.4 |
| 20260906050602 | 73 | 113 | 2.6 | 4.3 | 0.00 | 0.00 | 0.00 | 44 | 1019.2 |
| 20260906045601 | 73 | 0.0 | 0.9 | 0.00 | 0.00 | 0.00 | 43 | 1019.0 | |
| 20260906044601 | 74 | 225 | 0.9 | 2.6 | 0.00 | 0.00 | 0.00 | 43 | 1018.8 |
| 20260906043622 | 74 | 0.0 | 0.9 | 0.00 | 0.00 | 0.00 | 41 | 1018.8 | |
| 20260906042601 | 74 | 113 | 0.9 | 2.6 | 0.00 | 0.00 | 0.00 | 41 | 1018.7 |
| 20260906041602 | 74 | 0.0 | 0.9 | 0.00 | 0.00 | 0.00 | 40 | 1018.0 | |
| 20260906040602 | 74 | 113 | 0.9 | 2.6 | 0.00 | 0.00 | 0.00 | 40 | 1017.8 |
| 20260906035602 | 75 | 0.0 | 0.0 | 0.00 | 0.00 | 0.00 | 40 | 1017.6 | |
| 20260906034621 | 75 | 0.0 | 0.0 | 0.00 | 0.00 | 0.00 | 40 | 1016.7 | |
| 20260906033602 | 75 | 0.0 | 1.7 | 0.00 | 0.00 | 0.00 | 39 | 1016.7 | |
| 20260906032602 | 76 | 45 | 1.7 | 3.5 | 0.00 | 0.00 | 0.00 | 38 | 1016.8 |
| 20260906031601 | 77 | 0.0 | 1.7 | 0.00 | 0.00 | 0.00 | 37 | 1015.6 | |
| 20260906030622 | 77 | 0 | 0.9 | 1.7 | 0.00 | 0.00 | 0.00 | 36 | 1015.4 |
| 20260906025602 | 77 | 23 | 2.6 | 3.5 | 0.00 | 0.00 | 0.00 | 36 | 1015.2 |
| 20260906024602 | 78 | 23 | 1.7 | 3.5 | 0.00 | 0.00 | 0.00 | 36 | 1014.0 |
| 20260906023601 | 78 | 68 | 0.9 | 2.6 | 0.00 | 0.00 | 0.00 | 35 | 1014.2 |
| 20260906022601 | 79 | 45 | 1.7 | 3.5 | 0.00 | 0.00 | 0.00 | 34 | 1014.2 |
| 20260906021601 | 80 | 225 | 0.9 | 1.7 | 0.00 | 0.00 | 0.00 | 34 | 1013.9 |
| 20260906020601 | 80 | 0.0 | 1.7 | 0.00 | 0.00 | 0.00 | 33 | 1013.8 | |
| 20260906015622 | 81 | 0.0 | 0.0 | 0.00 | 0.00 | 0.00 | 32 | 1013.8 | |
| 20260906014601 | 81 | 270 | 0.9 | 1.7 | 0.00 | 0.00 | 0.00 | 31 | 1013.8 |
| 20260906013601 | 81 | 293 | 0.9 | 2.6 | 0.00 | 0.00 | 0.00 | 31 | 1013.6 |
| 20260906012602 | 82 | 293 | 1.7 | 3.5 | 0.00 | 0.00 | 0.00 | 30 | 1013.5 |
| 20260906011601 | 83 | 315 | 3.5 | 7.0 | 0.00 | 0.00 | 0.00 | 29 | 1013.6 |
| 20260906010601 | 84 | 315 | 3.5 | 7.0 | 0.00 | 0.00 | 0.00 | 29 | 1013.5 |
| 20260906005602 | 85 | 293 | 3.5 | 5.2 | 0.00 | 0.00 | 0.00 | 28 | 1013.4 |
| 20260906004601 | 85 | 293 | 1.7 | 3.5 | 0.00 | 0.00 | 0.00 | 28 | 1013.8 |
| 20260906003621 | 85 | 315 | 4.3 | 7.0 | 0.00 | 0.00 | 0.00 | 27 | 1013.8 |
| 20260906002602 | 86 | 315 | 6.1 | 8.7 | 0.00 | 0.00 | 0.00 | 26 | 1014.0 |
| 20260906001602 | 87 | 338 | 7.0 | 11.3 | 0.00 | 0.00 | 0.00 | 27 | 1014.3 |
| 20260906000601 | 87 | 315 | 7.8 | 13.0 | 0.00 | 0.00 | 0.00 | 27 | 1014.4 |
| 20260905235601 | 87 | 338 | 1.7 | 2.6 | 0.00 | 0.00 | 0.00 | 28 | 1014.3 |
| 20260905234601 | 88 | 315 | 1.7 | 1.7 | 0.00 | 0.00 | 0.00 | 27 | 1014.3 |
| 20260905233601 | 89 | 338 | 2.6 | 4.3 | 0.00 | 0.00 | 0.00 | 26 | 1014.3 |
| 20260905232601 | 90 | 338 | 2.6 | 3.5 | 0.00 | 0.00 | 0.00 | 25 | 1014.4 |
| 20260905231601 | 91 | 0 | 2.6 | 4.3 | 0.00 | 0.00 | 0.00 | 23 | 1014.7 |
| 20260905230601 | 92 | 0 | 4.3 | 7.0 | 0.00 | 0.00 | 0.00 | 23 | 1014.9 |
| 20260905225601 | 94 | 338 | 3.5 | 6.1 | 0.00 | 0.00 | 0.00 | 21 | 1015.1 |
| 20260905224601 | 94 | 338 | 3.5 | 7.8 | 0.00 | 0.00 | 0.00 | 21 | 1015.0 |
| 20260905223601 | 95 | 338 | 3.5 | 7.8 | 0.00 | 0.00 | 0.00 | 19 | 1015.3 |
| 20260905222601 | 95 | 68 | 0.9 | 3.5 | 0.00 | 0.00 | 0.00 | 19 | 1015.3 |
| 20260905221601 | 95 | 90 | 1.7 | 4.3 | 0.00 | 0.00 | 0.00 | 20 | 1015.1 |